Regional Weather Roundup
Issued by NWS

Home | Current Version | Previous Version | Text Only | Print | Product List | Glossary On
Versions: 1 2 3 4 5 6 7 8 9 10 11 12 13 14 15 16 17 18 19 20 21 22 23 24 25 26 27 28 29 30 31 32 33 34 35 36 37 38 39 40 41 42 43 44 45 46 47 48 49 50
000
ASUS43 KMKX 241300
RWRWI

WISCONSIN REGIONAL WEATHER ROUNDUP
NATIONAL WEATHER SERVICE MILWAUKEE/SULLIVAN WI
800 AM CDT SUN JUL 24 2016

NOTE: "FAIR" INDICATES FEW OR NO CLOUDS BELOW 12,000 FEET WITH NO
SIGNIFICANT WEATHER AND/OR OBSTRUCTIONS TO VISIBILITY.

WIZ001-002-006>008-014>016-023>028-241400-
NORTHWEST WISCONSIN

CITY           SKY/WX    TMP DP  RH WIND       PRES   REMARKS
SUPERIOR ARPT  CLOUDY    65  65 100 SW6       29.76R
ASHLAND        MOSUNNY   71  67  87 SW7       29.77R
HAYWARD        CLOUDY    68  65  90 SW8       29.81R
SIREN          SUNNY     70  68  94 W5        29.80R
CUMBERLAND     CLOUDY    66  64  94 W5        29.81S
RICE LAKE      PTSUNNY   69  66  91 CALM      29.82R
CHETEK         MOSUNNY   70  69  96 CALM      29.80R
LADYSMITH      CLOUDY    71  69  96 W3        29.82R FOG
EAU CLAIRE     CLOUDY    72  71  97 CALM      29.78R
MENOMONIE      PTSUNNY   72  72  99 SE3       29.80R
NEW RICHMOND   PTSUNNY   70  69  99 CALM      29.82S
OSCEOLA        SUNNY     70  70 100 CALM      29.83S
$$

WIZ003>005-009-010-017-018-241400-
NORTH CENTRAL WISCONSIN

CITY           SKY/WX    TMP DP  RH WIND       PRES   REMARKS
MANITOWISH WTR PTSUNNY   67  67 100 SW7       29.80R
ARBOR VITAE    MOSUNNY   72  70  93 SW3       29.81R
WOODRUFF       MOSUNNY   72  70  93 SW3       29.81R
RHINELANDER    SUNNY     73  68  84 SW7       29.82R
EAGLE RIVER    PTSUNNY   68  68 100 SW9       29.80R
LAND O LAKES   CLOUDY    69  68  96 SW5       29.79R
PHILLIPS       CLOUDY    69  69  99 S5        29.80R
TOMAHAWK       CLOUDY    69  68  96 S3        29.81S FOG
MEDFORD        FOG       69  69 100 SE6       29.81S VSB 1/4
MERRILL        FOG       70  70 100 S5        29.82F VSB 1
$$

WIZ029-030-035-036-043>047-241400-
CENTRAL WISCONSIN

CITY           SKY/WX    TMP DP  RH WIND       PRES   REMARKS
WAUSAU         FOG       71  71 100 S6        29.80S VSB 1/2
MOSINEE        FOG       72  72 100 S6        29.82S VSB 1/4
MARSHFIELD     FOG       72  70  93 CALM      29.81R VSB 1/2
STEVENS POINT  CLOUDY    70  70 100 S5        29.82S VSB 1/2
WAUPACA        LGT RAIN  74  74  99 SE3       29.82S
WAUTOMA        CLOUDY    72  71  97 SE5       29.82S
WISC RAPIDS    CLOUDY    75  72  90 S6        29.81S FOG
CAMP DOUGLAS   NOT AVBL
$$

WIZ011>013-019>022-031-037>040-048>050-241400-
NORTHEAST WISCONSIN

CITY           SKY/WX    TMP DP  RH WIND       PRES   REMARKS
ANTIGO         FOG       69  69 100 S3        29.83S VSB 1/2
SHAWANO        CLOUDY    74  71  92 S3        29.81F FOG
OCONTO         CLOUDY   N/A N/A N/A S3        29.81F
STURGEON BAY   CLOUDY    73  70  90 S7        29.83F
GREEN BAY      CLOUDY    73  73 100 S8        29.82F
MANITOWOC      NOT AVBL
APPLETON       LGT RAIN  72  72 100 S8        29.81F
CLINTONVILLE   CLOUDY    72  70  94 S7        29.81F FOG
OSHKOSH        CLOUDY    73  71  93 S8        29.82F
$$

WIZ032>034-041-042-053>061-241400-
SOUTHWEST WISCONSIN

CITY           SKY/WX    TMP DP  RH WIND       PRES   REMARKS
LA CROSSE      PTSUNNY   79  75  87 SW5       29.78S HX  83
SPARTA         CLOUDY    76  74  94 SW6       29.79F
VIROQUA        MOSUNNY   76  76 100 SW5       29.83R
BOSCOBEL       MOSUNNY   82  78  88 SW5       29.81R HX  91
PRAIRIE DU CHI MOSUNNY   81  75  82 CALM      29.80S HX  86
PLATTEVILLE    SUNNY     78  78 100 S8        29.84F HX  80
$$

WIZ056-057-062-063-064-067-068-241400-
SOUTH CENTRAL WISCONSIN

CITY           SKY/WX    TMP DP  RH WIND       PRES   REMARKS
REEDSBURG      CLOUDY    76  76 100 SW3       29.83R
BARABOO/DELLS  CLOUDY    76  73  91 SW3       29.84R
LONE ROCK      CLOUDY    79  76  90 NW5       29.83R HX  83
MINERAL POINT  CLOUDY    77  77 100 SW7       29.85S FOG
MADISON        CLOUDY    77  74  90 VRB5      29.84R
MIDDLETON      CLOUDY    77  75  93 SW7       29.84R
WATERTOWN      CLOUDY    75  75 100 S7        29.85S
MONROE         MOSUNNY   75  73  94 S17       29.85S
JANESVILLE     MOSUNNY   79  75  89 S8        29.85F HX  82
$$

WIZ051-052-058>065-066-070>072-241400-
SOUTHEAST WISCONSIN

CITY           SKY/WX    TMP DP  RH WIND       PRES   REMARKS
MILWAUKEE      LGT RAIN  75  71  87 SE6       29.89R
WAUKESHA       NOT AVBL
MILWAUKEE/TIMM PTSUNNY   73  70  88 SE7       29.88F
RACINE         CLOUDY    74  69  85 S6        29.91R
BURLINGTON     RAIN      74  73  95 S6        29.88S
KENOSHA        CLOUDY    76  72  87 S12       29.90R
FOND DU LAC    CLOUDY    75  72  90 S10       29.83F
SHEBOYGAN      CLOUDY    72  69  90 S9        29.86S
WEST BEND      CLOUDY    70  68  94 SE6       29.87S
JUNEAU         CLOUDY    74  72  95 S8        29.86S
$$

LSZ147-162-241400-
LAKE SUPERIOR

STATION/POSITION TIME  TEMP    WIND        PRES    WAVE
                       AIR SEA DIR/SP/G            HT/PER
                 (UTC) (F)     (DEG/KT/KT) (MB)    (FT/S)
W MID LAKE BUOY  1150   62 57   90/  6/  8 1005.5F   1/ 3
DEVILS ISLAND    1200   62     280/  7/  7 1006.9R
PORT WING        1200   67     190/  3/  5 1007.5R
SAXON HARBOR     1200   70     190/  3/  3 1007.5R
$$

LMZ867-665-643>646-241400-
LAKE MICHIGAN

STATION/POSITION TIME  TEMP    WIND        PRES    WAVE
                       AIR SEA DIR/SP/G            HT/PER
                 (UTC) (F)     (DEG/KT/KT) (MB)    (FT/S)
CHAMBERS ISLAND  1200   72     170/  5/  8 1010.2R
S GREEN BAY BUOY 1200   73 75  190/ 12/ 14   N/A
N MID LAKE BUOY  1150   70 69  200/ 14/ 17 1010.0R   2/ 4
NORTHPORT PIER   1200   71     170/  4/ 10 1010.2R
KEWAUNEE LAKESHO 1200   61     210/  4/  8 1010.3R
SHEBOYGAN LAKESH 1200   63     180/ 17/ 17 1011.0F
PORT WASHINGTON  1200   66     160/  3/  7 1012.5F
MILWAUKEE LAKESH 1210   63      40/ 10/ 11   N/A
S MID LAKE BUOY  1150   74 72  170/ 17/ 19 1011.0R   2/ 4
KENOSHA   LAKESH 1200   67     180/ 10/ 12 1011.9R
$$

TC  - TEMPERATURE IN CELSIUS
VSB - VISIBILITY IN STATUTE MILES
WCI - WIND CHILL INDEX
HX  - HEAT INDEX




USA.gov is the U.S. government's official web portal to all federal, state and local government web resources and services.